Погода в Твери

Хотите узнать прогноз погоды в Твери? Тогда Вам сюда: Погода в Твери

Поиск расширенной информации на нашем сайте:

Полезная информация:

Новости сайта



02.01.2020
Опубликован Долгосрочный прогноз погоды по городам России и ближнего зарубежья на январь 2020 года.
Карты: Прогноз на январь и февраль 2020 года, Сравнение прогнозируемой аномалии приземной температуры воздуха на январь 2020 года по разным моделям.




Погода в Твери - сегодня

Время (UTC), дата Ветер
(°,м/с) 
Видим.   Явления Облачность Т
(°С)
Тd
(°С)
f(%) Тe
(°С)
Pmin
(гПа)
dP
(гПа)
Po
(мм)
O2
(г/м3)
Тmin Tmax R s Состояние
почвы
15 16.04.21 050 (СВ) 3{11}  10 км    9/0 средняя, верхняя 
[Ac trans|Ci fib]
+15.3 -0.9 33 +16  1021.5  -0.4  753  287           
18 16.04.21 050 (СВ) 3{10}  10 км    9/0 средняя 
[Ac trans]
+12.3 -3.4 33 +12  1023  1.2  754  291    +16.3       
21 16.04.21 060 (СВ) 10 км    8/0 средняя 
[Ac trans]
+10.4 -7.2 28 +10  1023.8  0.6  755  294           
00 17.04.21 060 (СВ) 10 км    8/0 средняя 
[Ac trans]
+8.4 -7.9 31 +8  1023.9  755  296           
03 17.04.21 060 (СВ) 10 км    3/0 средняя 
[Ac trans]
+6.7 -8.4 33 +6  1024.2  0.2  755  298  +6.6         
06 17.04.21 070 (В) 10 км    9/0 средняя, верхняя 
[Ac trans|Ci]
+8.9 -6.9 32 +8  1024.5  0.4  755  295  +6.6        сухая 
09 17.04.21 070 (В) 10 км    8/0 средняя, верхняя 
[Ac trans|Ci fib]
+13.7 -3.6 30 +13  1024.2  0.1  755  290           
12 17.04.21 060 (СВ) 5-11{11}  10 км    8/0 средняя, верхняя 
[Ac trans|Ci fib]
+17 -3.3 25 +17  1023.3  -0.8  754  287           
15 17.04.21 060 (СВ) 4{12}  10 км    8/0 средняя, верхняя 
[Ac trans|Ci fib]
+16.1 -5.3 23 +16  1022.6  -0.7  754  287           
18 17.04.21 050 (СВ) 2{12}  10 км    8/0 средняя, верхняя 
[Ac trans|Ci fib]
+12.2 -8.1 23 +13  1023.4  0.5  754  292    +17.5       
21 17.04.21 030 (СВ) 10 км    6/0 средняя, верхняя 
[Ac trans|Ci fib]
+9 -7.2 31 +9  1023.7  0.1  754  295           
00 18.04.21 040 (СВ) 10 км    ясно 
+5.8 -7.2 39 +6  1023.7  -0.2  754  298           
03 18.04.21 040 (СВ) 10 км    ясно 
+5 -7.2 41 +5  1023.9  0.2  754  299  +4.5         
06 18.04.21 070 (В) 10 км    ясно 
+10.6 -7.4 27 +10  1023.8  0.2  755  293  +4.5        сухая 
09 18.04.21 090 (В) 7-13  10 км    3/0 средняя 
[Ac trans]
+13.7 -8.1 21 +13  1023.3  -0.3  754  290           
12 18.04.21 070 (В) 5-13{13}  10 км    3/0 средняя 
[Ac trans]
+15.7 -8.1 19 +15  1022.3  -0.8  754  288           
15 18.04.21 050 (СВ) 4-10{11}  10 км    4/0 средняя 
[Ac trans]
+14.5 -8.1 20 +14  1022.4  754  289           
18 18.04.21 050 (СВ) 2{11}  10 км    ясно 
+10.5 -5.3 32 +11  1023.6  0.9  754  293    +16       
21 18.04.21 040 (СВ) 10 км    ясно 
+7.7 -3.3 46 +8  1024.5  0.8  755  296           
00 19.04.21 050 (СВ) 10 км    ясно 
+6.2 -1.9 56 +6  1024.3  -0.3  755  298           
03 19.04.21 060 (СВ) 10 км    6/0 средняя 
[Ac trans]
+5.8 -1.1 61 +6  1024.9  0.5  755  298  +5.4         
06 19.04.21 060 (СВ) 10 км    9/0 средняя, верхняя 
[Ac As|Ci fib]
+7.2 -1 56 +6  1025.3  0.5  755  297  +5.4        сухая 
09 19.04.21 050 (СВ) 10 км    6/0 верхняя 
[Ci]
+11.9 -2.5 37 +11  1024.8  -0.2  755  292           
12 19.04.21 060 (СВ) 3{10}  10 км    8/3 1000 м верхняя 
[Cu med, cong|Ci]
+13.6 -3.3 31 +14  1024.1  -0.6  755  290           
15 19.04.21 080 (В) 10 км    8/4 1000 м средняя 
[Sc|Ac cast]
+11.9 -4.1 32 +11  1024  -0.2  755  292           
Время (UTC), дата Ветер
(°,м/с) 
Видим.   Явления Облачность Т
(°С)
Тd
(°С)
f(%) Тe
(°С)
Pmin
(гПа)
dP
(гПа)
Po
(мм)
O2
(г/м3)
Тmin Tmax R s Состояние
почвы

Для получения пояснительной информации подведите курсор к названию столбца.

ПОГОДА в Твери - архив

Всё, что Вы хотите узнать о погоде в Твери - удобно и подробно!

Выберите нужную дату (начиная с 1 января 2019* года) и нажмите кнопку "Найти".
Будут отображены архивные сводки погоды по пункту Тверь, начиная с указанной даты.


Отображать данные в формате CSV (для использования в таблицах Excel)


Внимание! Наш архив погоды предназначен исключительно для личного некоммерческого использования в познавательных целях. Если Вам необходимы официальные справки о состоянии погоды (для производственных, юридических, коммерческих и т.п. целей), обращайтесь в органы Росгидромета.

*Примечание: данная дата относится к архиву по метеостанциям СССР (Россия, СНГ, Балтия).
Архив по метеостанциям Зарубежной Европы и Азии (кроме Китая) хранится 10 дней, по другим регионам земного шара (Китай, Африка, Америка, Австралия, Океания) - 1 день.

Тверь - район местоположения метеостанции


Название, широта, долгота, высота метеостанции:
Тверь (город) 56.8°ш. 35.7°д. 137 м над ур. моря [Российская Федерация]

Дополнительная информация

В oтличие oт бoльшинства пoгoдных сайтoв мы публикуем пoдрoбную метеoинфoрмацию в детальнoм прoфессиoнальнoм фoрмате.

Характеристики температуры и влажнoсти вoздуха измеряются на высoте 2 м в тени вдали oт зданий и деревьев.
Скoрoсть ветра измеряется на высoте 10 м (на урoвне рoста челoвека скoрoсть ветра ниже в 1.5-2 раза). Если метеoстанция нахoдится в гoрoде или в лесу, тo скoрoсть ветра занижена на 2-4 м/с пo сравнению с oткрытым местoм. Скoрoсть ветра над акватoриями крупных рек и oзёр, а также на вершинах хoлмoв на 2-5 м/с выше, чем в oбычных услoвиях.
Атмoсфернoе давление в разных тoчках местнoсти мoжет значительнo oтличаться oт давления на метеoстанции, в зависимoсти oт услoвий рельефа (при пoдъёме на 10 м давление пoнижается примернo на 1 мм рт.ст.).